Location: Dumpton Point
(51.3500°N, 1.4433°E)
Time: 22:38:47
(UTC+00:00)

X-37B - Visible Passes

Search period start: 05 March 2021 00:00
Search period end: 15 March 2021 00:00
Orbit: 383 x 391 km, 45.0° (Epoch: 27 February)

Date Brightness Start Highest point End Pass type
(mag) Time Alt. Az. Time Alt. Az. Time Alt. Az.
12 Mar 3.2 19:54:58 10° SSW 19:55:23 12° SSW 19:55:23 12° SSW visible
13 Mar 2.8 18:57:31 10° S 18:59:04 13° SSE 18:59:58 12° SE visible
14 Mar 2.2 19:34:19 10° SW 19:36:45 21° S 19:36:45 21° S visible
